Regional Weather Roundup
Issued by NWS Spokane, WA

Home | Current Version | Previous Version | Text Only | Print | Product List | Glossary On
Versions: 1 2 3 4 5 6 7 8 9 10 11 12 13 14 15 16 17 18 19 20 21 22 23 24 25 26 27 28 29 30 31 32 33 34 35 36 37 38 39 40 41 42 43 44 45 46 47 48 49 50
000
NZUS01 KOTX 291057
RWROTX

Eastern Washington/Northern Idaho Roundup
National Weather Service, Spokane WA
400 AM PDT THU SEP 29 2016

Note: "fair" indicated few or no clouds below 12,000 feet with no
significant weather and/or obstructions to visibility.

...Northeast Washington and Northern Idaho Panhandle...

CITY           SKY/WX    TMP DP  RH WIND       PRES   REMARKS
Spokane Intl   MOCLDY    55  40  56 CALM      29.96F
Spokane Downto CLEAR     52  48  86 CALM      29.97S
Deer Park      PTCLDY    55  44  66 CALM      29.97S

...Southeast Washington and southern Idaho Panhandle...

CITY           SKY/WX    TMP DP  RH WIND       PRES   REMARKS
Walla Walla    PTCLDY    57  45  64 E5        29.92S
Pullman/Moscow CLEAR     49  38  65 CALM      29.98F
Lowell           N/A     52  50  93 CALM      30.00R

...Columbia Basin...

CITY           SKY/WX    TMP DP  RH WIND       PRES   REMARKS
Ephrata        CLEAR     61  35  37 NW13      29.93F
Moses Lake     CLEAR     50  36  58 NW6       29.94F
Pasco          PTCLDY    49  45  86 N6        29.92S
Hermiston      CLEAR     50  42  74 S5        29.92R
Pendleton      CLEAR     54  41  61 SE6       29.93S

...East Slopes Cascades...

CITY           SKY/WX    TMP DP  RH WIND       PRES   REMARKS
The Dalles     CLEAR     59  50  72 W3        29.93S
Yakima         CLEAR     50  41  71 W9        29.95S
Ellensburg     CLEAR     46  41  82 CALM      29.97F
Omak           CLEAR     54  35  48 NW14      30.00S
Sunnyside      SUNNY     45  42  91 CALM      29.93S

...Southern British Columbia...

CITY           SKY/WX    TMP DP  RH WIND       PRES   REMARKS

...Western Montana...

CITY           SKY/WX    TMP DP  RH WIND       PRES   REMARKS
Missoula       CLEAR     47  44  90 NW3       30.06R

...Neighboring Cities...

CITY           SKY/WX    TMP DP  RH WIND       PRES   REMARKS
Seattle        PTCLDY    53  42  66 NE8       30.06R
Portland       CLEAR     55  47  74 NW5       30.01S
Boise          PTCLDY    74  38  27 SE10      29.92S
Great Falls    CLEAR     44  41  89 W5        30.11F



USA.gov is the U.S. government's official web portal to all federal, state and local government web resources and services.